Weather History for YSRI - August, 2013

Change the Weather History Date:

Sunday, August 11, 2013

  Actual Average (YSSY) Record (YSSY)
Temperature  
Mean Temperature 53 °F -  
Max Temperature 73 °F 68 °F 80 °F (2002)
Min Temperature 33 °F 43 °F 41 °F (1997)
Degree Days  
Heating Degree Days 12    
Growing Degree Days 3 (Base 50)    
Moisture  
Dew Point 41 °F    
Average Humidity 79    
Maximum Humidity 100    
Minimum Humidity 31    
Precipitation  
Precipitation 0.00 in 0.07 in - ()
Sea Level Pressure  
Sea Level Pressure 29.99 in    
Wind  
Wind Speed 2 mph ()    
Max Wind Speed 16 mph    
Max Gust Speed 26 mph    
Visibility 5.0 miles    
Events      
Averages and records for this station are not official NWS values.
T = Trace of Precipitation, MM = Missing Value Source: Averaged Metar Reports

Daily Weather History Graph

Daily Weather History Graph

Search for Another Location

Airport or City:

Trip Planner

Search our weather history database for the weather conditions in past years. The results will help you decide how hot, cold, wet, or windy it might be!

Date:

Astronomy

Aug. 11, 2013 Rise Set
Actual Time 6:39 AM AEST 5:24 PM AEST
Civil Twilight 6:14 AM AEST 5:50 PM AEST
Nautical Twilight 5:44 AM AEST 6:20 PM AEST
Astronomical Twilight 5:15 AM AEST 6:49 PM AEST
Moon 8:40 AM AEST (8/11) 9:35 PM AEST (8/11)
Length of Visible Light 11h 36m
Length of Day
10h 44m
Waxing Crescent, 17% of the Moon is Illuminated
Aug 11
Waxing Crescent
Aug 14
First Quarter
Aug 21
Full
Aug 28
Last Quarter
Sep 5
New

Hourly Weather History & Observations

Time (AEST) Temp. Windchill Dew Point Humidity Pressure Visibility Wind Dir Wind Speed Gust Speed Precip Events Conditions
12:00 AM 44.6 °F - 41.0 °F 87% 30.01 in 6.2 mi ENE 1.2 mph - N/A   Unknown
12:30 AM 44.6 °F - 41.0 °F 87% 30.01 in 6.2 mi Calm Calm - N/A   Unknown
1:00 AM 42.8 °F - 42.8 °F 100% 30.01 in 6.2 mi Calm Calm - N/A   Unknown
1:30 AM 41.0 °F - 39.2 °F 93% 30.01 in 6.2 mi Calm Calm - N/A   Unknown
2:00 AM 41.0 °F - 39.2 °F 93% 30.01 in 6.2 mi Calm Calm - N/A   Unknown
2:30 AM 37.4 °F - 35.6 °F 93% 30.01 in 6.2 mi Calm Calm - N/A   Unknown
3:00 AM 41.0 °F - 39.2 °F 93% 30.01 in 6.2 mi Calm Calm - N/A   Unknown
3:30 AM 37.4 °F 33.8 °F 37.4 °F 100% 30.01 in 3.1 mi North 4.6 mph - N/A   Unknown
3:33 AM 37.4 °F 33.8 °F 37.4 °F 100% 30.01 in 0.6 mi North 4.6 mph - N/A   Scattered Clouds
3:40 AM 37.4 °F 33.8 °F 37.4 °F 100% 30.01 in 0.1 mi North 4.6 mph - N/A   Mostly Cloudy
4:00 AM 37.4 °F - 37.4 °F 100% 30.01 in 0.2 mi Calm Calm - N/A   Overcast
4:04 AM 37.4 °F - 37.4 °F 100% 30.01 in 0.6 mi Calm Calm - N/A   Mostly Cloudy
4:17 AM 35.6 °F - 35.6 °F 100% 30.01 in 3.7 mi Calm Calm - N/A   Mostly Cloudy
4:30 AM 37.4 °F - 37.4 °F 100% 30.01 in 0.9 mi Calm Calm - N/A   Scattered Clouds
4:36 AM 35.6 °F - 35.6 °F 100% 30.01 in 0.7 mi Calm Calm - N/A   Scattered Clouds
5:00 AM 35.6 °F - 35.6 °F 100% 30.01 in 0.1 mi Calm Calm - N/A   Scattered Clouds
5:01 AM 35.6 °F - 35.6 °F 100% 30.01 in 0.1 mi Calm Calm - N/A   Mostly Cloudy
5:30 AM 35.6 °F - 35.6 °F 100% 30.04 in 0.1 mi Calm Calm - N/A   Overcast
6:00 AM 33.8 °F - 33.8 °F 100% 30.04 in 0.3 mi Calm Calm - N/A   Mostly Cloudy
6:26 AM 33.8 °F - 33.8 °F 100% 30.04 in 1.6 mi Calm Calm - N/A   Scattered Clouds
6:30 AM 33.8 °F - 33.8 °F 100% 30.04 in 5.0 mi Calm Calm - N/A   Scattered Clouds
6:39 AM 33.8 °F - 33.8 °F 100% 30.06 in 6.2 mi Calm Calm - N/A   Unknown
6:48 AM 33.8 °F - 33.8 °F 100% 30.06 in 3.7 mi Calm Calm - N/A   Unknown
7:00 AM 33.8 °F - 33.8 °F 100% 30.06 in - Calm Calm - N/A   Unknown
7:13 AM 33.8 °F - 33.8 °F 100% 30.06 in 6.2 mi Calm Calm - N/A   Scattered Clouds
7:17 AM 33.8 °F - 33.8 °F 100% 30.06 in 6.2 mi Calm Calm - N/A   Mostly Cloudy
7:20 AM 35.6 °F - 33.8 °F 93% 30.06 in - Calm Calm - N/A   Mostly Cloudy
7:30 AM 37.4 °F - 37.4 °F 100% 30.06 in 4.3 mi South 2.3 mph - N/A   Scattered Clouds
7:38 AM 37.4 °F - 37.4 °F 100% 30.06 in 6.2 mi Calm Calm - N/A   Scattered Clouds
7:39 AM 39.2 °F - 39.2 °F 100% 30.06 in 6.2 mi Calm Calm - N/A   Scattered Clouds
8:00 AM 41.0 °F - 41.0 °F 100% 30.06 in 6.2 mi Calm Calm - N/A   Unknown
8:30 AM 42.8 °F - 42.8 °F 100% 30.06 in 6.2 mi Calm Calm - N/A   Unknown
9:00 AM 48.2 °F - 42.8 °F 82% 30.06 in 6.2 mi Calm Calm - N/A   Unknown
9:30 AM 50.0 °F - 44.6 °F 82% 30.06 in 6.2 mi ESE 5.8 mph - N/A   Unknown
10:00 AM 55.4 °F - 44.6 °F 67% 30.06 in 6.2 mi ENE 2.3 mph - N/A   Unknown
10:30 AM 59.0 °F - 42.8 °F 55% 30.04 in 6.2 mi Calm Calm - N/A   Unknown
11:00 AM 59.0 °F - 41.0 °F 51% 30.04 in 6.2 mi ESE 5.8 mph - N/A   Unknown
11:30 AM 62.6 °F - 42.8 °F 48% 30.01 in 6.2 mi East 3.5 mph - N/A   Unknown
12:00 PM 64.4 °F - 42.8 °F 45% 29.98 in 6.2 mi NE 2.3 mph - N/A   Unknown
12:30 PM 66.2 °F - 41.0 °F 40% 29.98 in 6.2 mi NE 3.5 mph - N/A   Unknown
1:00 PM 68.0 °F - 37.4 °F 33% 29.95 in 6.2 mi ENE 4.6 mph - N/A   Unknown
1:30 PM 68.0 °F - 39.2 °F 35% 29.95 in 6.2 mi ENE 5.8 mph - N/A   Unknown
2:00 PM 69.8 °F - 41.0 °F 35% 29.92 in 6.2 mi ENE 5.8 mph - N/A   Unknown
2:30 PM 69.8 °F - 41.0 °F 35% 29.92 in 6.2 mi East 6.9 mph - N/A   Unknown
3:00 PM 73.4 °F - 41.0 °F 31% 29.92 in 6.2 mi Calm Calm - N/A   Unknown
3:30 PM 73.4 °F - 41.0 °F 31% 29.92 in 6.2 mi West 11.5 mph - N/A   Unknown
4:00 PM 73.4 °F - 42.8 °F 33% 29.89 in 6.2 mi WNW 8.1 mph - N/A   Unknown
4:30 PM 69.8 °F - 42.8 °F 38% 29.89 in 6.2 mi West 16.1 mph - N/A   Unknown
5:00 PM 69.8 °F - 42.8 °F 38% 29.89 in 6.2 mi WSW 10.4 mph - N/A   Scattered Clouds
5:30 PM 68.0 °F - 44.6 °F 43% 29.92 in 6.2 mi West 8.1 mph - N/A   Overcast
6:00 PM 68.0 °F - 46.4 °F 46% 29.92 in 6.2 mi West 13.8 mph 26.5 mph N/A   Light Drizzle
6:30 PM 60.8 °F - 51.8 °F 72% 29.92 in 6.2 mi NNW 8.1 mph - N/A   Scattered Clouds
7:00 PM 62.6 °F - 50.0 °F 63% 29.92 in 6.2 mi West 10.4 mph - N/A   Scattered Clouds
7:30 PM 57.2 °F - 50.0 °F 77% 29.92 in 6.2 mi NW 8.1 mph - N/A   Unknown
8:00 PM 57.2 °F - 50.0 °F 77% 29.92 in 6.2 mi WNW 4.6 mph - N/A   Unknown
8:30 PM 55.4 °F - 50.0 °F 82% 29.92 in 6.2 mi Calm Calm - N/A   Unknown
9:00 PM 53.6 °F - 48.2 °F 82% 29.92 in 6.2 mi Calm Calm - N/A   Unknown
9:30 PM 51.8 °F - 48.2 °F 88% 29.89 in 6.2 mi Calm Calm - N/A   Unknown
10:00 PM 50.0 °F - 46.4 °F 87% 29.89 in 6.2 mi NNE 2.3 mph - N/A   Unknown
10:30 PM 48.2 °F - 46.4 °F 93% 29.89 in 6.2 mi Calm Calm - N/A   Unknown
11:00 PM 48.2 °F - 46.4 °F 93% 29.89 in 6.2 mi Calm Calm - N/A   Unknown
11:30 PM 46.4 °F - 46.4 °F 100% 29.89 in 6.2 mi Calm Calm - N/A   Unknown